Regional Weather Roundup
Issued by NWS

Home | Current Version | Previous Version | Text Only | Print | Product List | Glossary Off
Versions: 1 2 3 4 5 6 7 8 9 10 11 12 13 14 15 16 17 18 19 20 21 22 23 24 25 26 27 28 29 30 31 32 33 34 35 36 37 38 39 40 41 42 43 44 45 46 47 48 49 50

000
ASUS43 KLSX 232307
RWRMO

WEATHER SUMMARY FOR MISSOURI
NATIONAL WEATHER SERVICE SPRINGFIELD MO
500 PM CST MON JAN 23 2017

NOTE: "FAIR" INDICATES FEW OR NO CLOUDS BELOW 12,000 FEET WITH NO
       SIGNIFICANT WEATHER AND/OR OBSTRUCTIONS TO VISIBILITY.
       CURRENT SKY AND/OR WEATHER CONDITIONS ARE NOT AVAILABLE FOR
       CHILLICOTHE AND FARMINGTON.

MOZ001>031-035>038-043-044-053-054-240000-
...NORTHERN AND WESTERN MISSOURI...

CITY           SKY/WX    TMP DP  RH WIND       PRES   REMARKS
KANSAS CTY INT PTCLDY    39  30  70 E7        29.82S
KANSAS C DTWN  CLEAR     42  32  67 E7        29.83S
LEE`S SUMMIT   CLEAR     41  33  73 E7        29.83F
ST JOSEPH      CLEAR     39  32  76 E8        29.83F
CHILLICOTHE      N/A     36  30  79 N5        29.88R
KIRKSVILLE     CLOUDY    33  30  88 CALM      29.86R

$$
MOZ066>068-077>081-088>096-101>105-240000-
...SOUTHWEST MISSOURI...

CITY           SKY/WX    TMP DP  RH WIND       PRES   REMARKS
SPRINGFIELD    CLEAR     49  30  48 NE5       29.83S
JOPLIN         CLEAR     50  31  48 VRB5      29.82F
BRANSON        CLEAR     48  32  53 CALM      29.84S

$$
MOZ032>034-039>042-045>050-055>058-069>072-240000-
...CENTRAL MISSOURI...

CITY           SKY/WX    TMP DP  RH WIND       PRES   REMARKS
COLUMBIA       CLOUDY    37  31  78 W6        29.86S
JEFFERSON CITY CLOUDY    38  32  79 NW7       29.88R
ROLLA          CLOUDY    41  33  73 W6        29.84R
SEDALIA        CLEAR     38  31  76 CALM      29.87F
WHITEMAN AFB   PTCLDY    40  37  90 CALM      29.84F
WARRENSBURG    CLEAR     41  32  70 CALM      29.85S
OSAGE BEACH    PTCLDY    43  34  70 NW5       29.87R

$$
MOZ051-052-059>065-240000-
...EAST CENTRAL MISSOURI...

CITY           SKY/WX    TMP DP  RH WIND       PRES   REMARKS
ST LOUIS INTL  CLOUDY    43  34  70 N8        29.85R
SPIRIT OF STL  CLOUDY    43  34  70 NW9       29.85R
ST CHARLES     CLOUDY    42  34  73 NW7       29.84R

$$
MOZ072>076-082>087-097>100-106>115-240000-
...SOUTH CENTRAL AND SOUTHEAST MISSOURI...

CITY           SKY/WX    TMP DP  RH WIND       PRES   REMARKS
CAPE GIRARDEAU CLOUDY    44  34  67 N12       29.82R
FARMINGTON     CLOUDY    41  34  76 NW9       29.82F
POPLAR BLUFF   MOCLDY    49  37  63 NW10      29.83R
WEST PLAINS    CLEAR     48  32  53 NW6       29.83S

$$


USA.gov is the U.S. government's official web portal to all federal, state and local government web resources and services.